Weather History for Fort Morgan, CO

Change the Weather History Date:

Monday, July 29, 2013

  Actual Average (KAKO) Record (KAKO)
Temperature  
Mean Temperature 66 °F 74 °F  
Max Temperature 76 °F 88 °F 100 °F (2005)
Min Temperature 55 °F 60 °F 47 °F (1971)
Degree Days  
Heating Degree Days 0    
Month to date heating degree days  
Cooling Degree Days 0    
Month to date cooling degree days  
Growing Degree Days 16 (Base 50)    
Moisture  
Dew Point 56 °F    
Average Humidity 78    
Maximum Humidity 97    
Minimum Humidity 38    
Precipitation  
Precipitation 0.00 in 0.08 in 1.05 in (2014)
Month to date precipitation 2.37  
Year to date precipitation 11.01  
Sea Level Pressure  
Sea Level Pressure 30.06 in    
Wind  
Wind Speed 7 mph (WNW)    
Max Wind Speed 18 mph    
Max Gust Speed 22 mph    
Visibility 8 miles    
Events      
T = Trace of Precipitation, MM = Missing Value Source: NWS Daily Summary

Daily Weather History Graph

Daily Weather History Graph

Search for Another Location

Airport:

Trip Planner

Search our weather history database for the weather conditions in past years. The results will help you decide how hot, cold, wet, or windy it might be!

Date:

Astronomy

Jul. 29, 2013 Rise Set
Actual Time 5:50 AM MDT 8:12 PM MDT
Civil Twilight 5:19 AM MDT 8:43 PM MDT
Nautical Twilight 4:41 AM MDT 9:21 PM MDT
Astronomical Twilight 3:59 AM MDT 10:02 PM MDT
Moon No Moon Rise 1:35 PM MDT (7/29)
Length of Visible Light 15h 23m
Length of Day
14h 22m
Waning Gibbous, 50% of the Moon is Illuminated
Jul 29
Waning Gibbous
Aug 6
New
Aug 14
First Quarter
Aug 20
Full
Aug 28
Last Quarter

Hourly Weather History & Observations

Time (MDT) Temp. Dew Point Humidity Pressure Visibility Wind Dir Wind Speed Gust Speed Precip Events Conditions
12:15 AM 59.4 °F 57.4 °F 93% 30.00 in 7.0 mi SE 8.1 mph - N/A   Clear
12:35 AM 59.0 °F 57.2 °F 94% 30.02 in 5.0 mi East 6.9 mph - N/A   Clear
12:55 AM 58.5 °F 56.8 °F 94% 30.01 in 5.0 mi East 6.9 mph - N/A   Clear
1:15 AM 58.5 °F 56.8 °F 94% 30.00 in 5.0 mi ESE 5.8 mph - N/A   Clear
1:55 AM 58.1 °F 56.5 °F 94% 29.99 in 5.0 mi East 6.9 mph - N/A   Clear
2:15 AM 57.7 °F 56.3 °F 95% 29.99 in 5.0 mi East 5.8 mph - N/A   Clear
2:55 AM 57.2 °F 55.8 °F 95% 29.98 in 5.0 mi East 6.9 mph - N/A   Clear
3:15 AM 57.6 °F 56.1 °F 95% 29.98 in 5.0 mi East 5.8 mph - N/A   Clear
3:55 AM 56.1 °F 54.7 °F 95% 29.98 in 3.0 mi NE 8.1 mph - N/A   Clear
4:15 AM 55.9 °F 54.7 °F 96% 29.98 in 2.0 mi East 5.8 mph - N/A   Clear
4:35 AM 55.9 °F 54.9 °F 96% 29.99 in 2.5 mi ENE 6.9 mph - N/A   Clear
4:55 AM 56.3 °F 55.0 °F 96% 29.99 in 2.5 mi ENE 8.1 mph - N/A   Clear
5:15 AM 56.5 °F 55.4 °F 96% 30.00 in 3.0 mi NE 9.2 mph - N/A   Clear
5:35 AM 57.4 °F 56.3 °F 96% 30.00 in 5.0 mi East 9.2 mph - N/A   Mostly Cloudy
5:55 AM 57.6 °F 56.5 °F 96% 30.02 in 4.0 mi ENE 8.1 mph - N/A   Overcast
6:15 AM 58.1 °F 57.2 °F 97% 30.02 in 2.5 mi ENE 8.1 mph - N/A   Overcast
6:35 AM 59.0 °F 57.6 °F 95% 30.01 in 2.5 mi East 6.9 mph - N/A   Overcast
6:55 AM 59.7 °F 58.5 °F 96% 30.02 in 2.5 mi ENE 11.5 mph - N/A   Overcast
7:15 AM 60.1 °F 59.0 °F 96% 30.02 in 2.5 mi East 10.4 mph - N/A   Overcast
7:35 AM 60.6 °F 59.4 °F 96% 30.02 in 3.0 mi East 9.2 mph - N/A   Overcast
7:55 AM 61.2 °F 59.5 °F 94% 30.02 in 4.0 mi ESE 11.5 mph - N/A   Overcast
8:15 AM 61.5 °F 59.7 °F 94% 30.02 in 4.0 mi ESE 8.1 mph - N/A   Overcast
8:35 AM 63.3 °F 61.0 °F 92% 30.02 in 5.0 mi ESE 6.9 mph - N/A   Overcast
8:55 AM 64.8 °F 60.8 °F 87% 30.03 in 10.0 mi SSE 5.8 mph - N/A   Overcast
9:15 AM 66.2 °F 60.3 °F 81% 30.04 in 10.0 mi South 3.5 mph - N/A   Overcast
9:35 AM 66.4 °F 60.4 °F 81% 30.04 in 10.0 mi SSW 6.9 mph - N/A   Overcast
9:55 AM 66.6 °F 60.1 °F 80% 30.05 in 10.0 mi West 5.8 mph - N/A   Overcast
10:15 AM 67.1 °F 59.7 °F 77% 30.05 in 10.0 mi Calm Calm - N/A   Overcast
10:35 AM 68.9 °F 60.1 °F 73% 30.05 in 10.0 mi West 5.8 mph - N/A   Overcast
10:55 AM 71.8 °F 60.1 °F 67% 30.06 in 10.0 mi NNW 3.5 mph - N/A   Mostly Cloudy
11:15 AM 72.5 °F 60.1 °F 65% 30.06 in 10.0 mi WNW 3.5 mph - N/A   Clear
11:35 AM 73.8 °F 59.9 °F 62% 30.06 in 10.0 mi Calm Calm - N/A   Clear
11:55 AM - - N/A% 30.05 in 10.0 mi Calm Calm - N/A   Clear
12:15 PM - - N/A% 30.05 in 10.0 mi WNW 3.5 mph - N/A   Clear
12:35 PM - - N/A% 30.05 in 10.0 mi West 3.5 mph - N/A   Clear
12:55 PM - - N/A% 30.05 in 10.0 mi NW 6.9 mph - N/A   Clear
1:15 PM - - N/A% 30.05 in 10.0 mi West 5.8 mph - N/A   Scattered Clouds
1:35 PM - - N/A% 30.05 in 10.0 mi West 8.1 mph - N/A   Scattered Clouds
1:55 PM - - N/A% 30.06 in 10.0 mi WSW 9.2 mph - N/A   Mostly Cloudy
2:15 PM - - N/A% 30.07 in 10.0 mi WSW 10.4 mph - N/A   Overcast
2:35 PM - - N/A% 30.07 in 10.0 mi West 15.0 mph - N/A   Overcast
2:55 PM - - N/A% 30.08 in 10.0 mi West 16.1 mph - N/A   Overcast
3:15 PM 73.4 °F 59.7 °F 62% 30.09 in 10.0 mi West 17.3 mph 21.9 mph N/A   Overcast
3:35 PM 74.7 °F 59.2 °F 58% 30.09 in 10.0 mi West 18.4 mph - N/A   Mostly Cloudy
3:55 PM 74.5 °F 57.2 °F 55% 30.09 in 10.0 mi West 13.8 mph - N/A   Overcast
4:15 PM 75.0 °F 48.0 °F 38% 30.09 in 10.0 mi West 12.7 mph - N/A   Mostly Cloudy
4:35 PM - - N/A% 30.09 in 10.0 mi West 16.1 mph 20.7 mph N/A   Mostly Cloudy
4:55 PM - - N/A% 30.09 in 10.0 mi West 12.7 mph - N/A   Mostly Cloudy
5:15 PM - - N/A% 30.09 in 10.0 mi WNW 11.5 mph - N/A   Scattered Clouds
5:35 PM - - N/A% 30.09 in 10.0 mi West 9.2 mph - N/A   Clear
5:55 PM - - N/A% 30.09 in 10.0 mi West 9.2 mph - N/A   Scattered Clouds
6:15 PM - - N/A% 30.09 in 10.0 mi West 9.2 mph - N/A   Scattered Clouds
6:35 PM - - N/A% 30.10 in 10.0 mi WNW 11.5 mph - N/A   Mostly Cloudy
6:55 PM - - N/A% 30.11 in 10.0 mi WNW 6.9 mph - N/A   Overcast
7:15 PM 74.8 °F 53.4 °F 47% 30.11 in 10.0 mi West 4.6 mph - N/A   Overcast
7:35 PM 76.1 °F 54.1 °F 46% 30.12 in 10.0 mi WNW 4.6 mph - N/A   Mostly Cloudy
7:55 PM 74.3 °F 52.3 °F 46% 30.13 in 10.0 mi NNW 8.1 mph - N/A   Mostly Cloudy
8:15 PM 71.6 °F 52.7 °F 51% 30.13 in 10.0 mi NNW 6.9 mph - N/A   Overcast
8:35 PM 69.4 °F 53.1 °F 56% 30.14 in 10.0 mi NW 6.9 mph - N/A   Scattered Clouds
8:55 PM 70.0 °F 49.8 °F 49% 30.14 in 10.0 mi NW 8.1 mph - N/A   Clear
9:15 PM 70.0 °F 50.2 °F 49% 30.14 in 10.0 mi NNW 4.6 mph - N/A   Clear
9:35 PM 67.3 °F 53.8 °F 62% 30.15 in 10.0 mi ENE 4.6 mph - N/A   Clear
9:55 PM 66.4 °F 53.6 °F 63% 30.16 in 10.0 mi Calm Calm - N/A   Clear
10:15 PM 66.0 °F 54.5 °F 66% 30.17 in 10.0 mi South 4.6 mph - N/A   Clear
10:35 PM 65.5 °F 55.0 °F 69% 30.17 in 10.0 mi Calm Calm - N/A   Scattered Clouds
10:55 PM 65.3 °F 54.3 °F 68% 30.15 in 10.0 mi SW 3.5 mph - N/A   Scattered Clouds
11:15 PM 62.6 °F 54.5 °F 75% 30.16 in 10.0 mi West 5.8 mph - N/A   Clear
11:35 PM 63.5 °F 54.1 °F 72% 30.17 in 10.0 mi West 6.9 mph - N/A   Clear
11:55 PM 63.5 °F 53.2 °F 69% 30.17 in 10.0 mi West 6.9 mph - N/A   Clear